Printer-friendly version

IAU Minor Planet Center

Minor Planet Center

C/2007 M2 (Catalina)

Orbital Elements

The following orbital elements are taken from MPC 61437:
C/2007 M2 (Catalina)
Epoch 2008 Nov. 30.0 TT = JDT 2454800.5
T 2008 Dec. 8.5910 TT                                   MPC
q   3.540900             (2000.0)            P               Q
z  +0.000261       Peri.  220.6739      -0.7624349      +0.6453713
 +/-0.000036       Node   357.2846      +0.1950626      +0.1602990
e   0.999077       Incl.   80.9522      -0.6169632      -0.7468602
From 61 observations 2007 June 20-Nov. 24, mean residual 0".5.
Elements are also available for the current standard epoch:
C/2007 M2 (Catalina)
Epoch 2009 June 18.0 TT = JDT 2455000.5
T 2008 Dec. 8.5886 TT                                   MPC
q   3.540928             (2000.0)            P               Q
z  +0.000332       Peri.  220.6743      -0.7624256      +0.6453870
 +/-0.000036       Node   357.2884      +0.1950391      +0.1603643
e   0.998824       Incl.   80.9543      -0.6169821      -0.7468326
An explanation of the orbital elements is available.

These orbital elements are also available in forms suitable for loading into a number of popular planetarium-type software programs.


Ephemeris

The following ephemeris is at intervals of five days. A daily ephemeris covering the same time interval is also available.

Personalized ephemerides for this (and other) objects may be generated using the Minor Planet & Comet Ephemeris Service.

Recent magnitude estimates for this comet (as reported to the ICQ) may be available.

Date    TT    R. A. (2000) Decl.     Delta      r     Elong.  Phase   m1    m2
2009 06 08    07 24.98   -58 05.8    3.840    3.904    86.0    15.0  16.8
2009 06 13    07 27.38   -57 55.1    3.878    3.922    85.0    14.9  16.9
2009 06 18    07 30.08   -57 49.9    3.915    3.942    84.1    14.9  16.9
2009 06 23    07 33.03   -57 50.1    3.950    3.962    83.2    14.8  17.0
2009 06 28    07 36.20   -57 55.7    3.985    3.982    82.5    14.7  17.0
2009 07 03    07 39.54   -58 06.6    4.019    4.002    81.8    14.6  17.0
2009 07 08    07 43.02   -58 22.8    4.051    4.023    81.2    14.5  17.1
2009 07 13    07 46.61   -58 44.2    4.082    4.044    80.7    14.4  17.1
2009 07 18    07 50.29   -59 10.7    4.113    4.066    80.2    14.3  17.2
2009 07 23    07 54.03   -59 42.1    4.142    4.087    79.9    14.2  17.2
2009 07 28    07 57.79   -60 18.5    4.170    4.109    79.6    14.1  17.2
2009 08 02    08 01.55   -60 59.7    4.197    4.132    79.4    14.0  17.3
2009 08 07    08 05.27   -61 45.4    4.223    4.155    79.2    13.9  17.3
2009 08 12    08 08.93   -62 35.7    4.249    4.178    79.1    13.8  17.4
2009 08 17    08 12.49   -63 30.3    4.274    4.201    79.1    13.7  17.4
2009 08 22    08 15.92   -64 29.1    4.299    4.225    79.0    13.6  17.4
2009 08 27    08 19.16   -65 32.0    4.323    4.249    79.1    13.5  17.5
2009 09 01    08 22.16   -66 38.6    4.347    4.273    79.1    13.4  17.5
2009 09 06    08 24.85   -67 48.8    4.372    4.297    79.1    13.3  17.5
2009 09 11    08 27.15   -69 02.4    4.396    4.322    79.2    13.2  17.6
2009 09 16    08 28.97   -70 19.1    4.421    4.347    79.2    13.1  17.6
2009 09 21    08 30.15   -71 38.5    4.447    4.372    79.2    13.0  17.6
2009 09 26    08 30.51   -73 00.5    4.473    4.398    79.2    12.9  17.7
2009 10 01    08 29.79   -74 24.4    4.500    4.423    79.2    12.8  17.7
2009 10 06    08 27.65   -75 49.9    4.529    4.449    79.1    12.7  17.8
2009 10 11    08 23.57   -77 16.2    4.558    4.476    79.0    12.6  17.8
2009 10 16    08 16.79   -78 42.7    4.588    4.502    78.8    12.5  17.8
2009 10 21    08 06.13   -80 08.2    4.620    4.528    78.5    12.4  17.9
2009 10 26    07 49.76   -81 30.8    4.653    4.555    78.2    12.3  17.9
2009 10 31    07 24.87   -82 47.8    4.688    4.582    77.8    12.2  18.0
2009 11 05    06 47.49   -83 54.5    4.724    4.609    77.3    12.1  18.0
2009 11 10    05 53.76   -84 43.4    4.762    4.637    76.8    12.0  18.1
2009 11 15    04 45.17   -85 04.8    4.801    4.664    76.2    11.9  18.1
2009 11 20    03 34.18   -84 52.8    4.841    4.692    75.5    11.8  18.1
2009 11 25    02 35.59   -84 10.8    4.883    4.720    74.7    11.6  18.2
2009 11 30    01 53.84   -83 08.2    4.926    4.748    73.9    11.5  18.2
2009 12 05    01 25.84   -81 53.6    4.970    4.776    73.0    11.4  18.3
2009 12 10    01 07.35   -80 32.1    5.015    4.804    72.1    11.2  18.3
2009 12 15    00 55.24   -79 07.1    5.062    4.833    71.1    11.1  18.4
2009 12 20    00 47.46   -77 40.3    5.108    4.862    70.1    11.0  18.4
2009 12 25    00 42.67   -76 13.0    5.156    4.890    69.0    10.8  18.5
2009 12 30    00 40.00   -74 46.1    5.203    4.919    67.9    10.7  18.5
2010 01 04    00 38.88   -73 20.2    5.251    4.948    66.9    10.5  18.5
2010 01 09    00 38.92   -71 55.6    5.299    4.978    65.8    10.4  18.6
2010 01 14    00 39.84   -70 32.7    5.347    5.007    64.8    10.2  18.6
2010 01 19    00 41.45   -69 11.7    5.394    5.036    63.7    10.1  18.7
2010 01 24    00 43.60   -67 53.0    5.440    5.066    62.8     9.9  18.7
2010 01 29    00 46.17   -66 36.6    5.485    5.096    61.9     9.8  18.8
2010 02 03    00 49.07   -65 22.7    5.530    5.125    61.0     9.7  18.8
2010 02 08    00 52.24   -64 11.5    5.573    5.155    60.3     9.6  18.9
2010 02 13    00 55.62   -63 03.0    5.614    5.185    59.6     9.5  18.9
2010 02 18    00 59.18   -61 57.4    5.654    5.215    59.1     9.4  18.9
2010 02 23    01 02.88   -60 54.7    5.691    5.246    58.7     9.3  19.0
2010 02 28    01 06.67   -59 55.1    5.727    5.276    58.4     9.2  19.0
2010 03 05    01 10.54   -58 58.5    5.761    5.306    58.2     9.1  19.1
2010 03 10    01 14.47   -58 05.1    5.792    5.337    58.2     9.1  19.1
2010 03 15    01 18.43   -57 14.8    5.821    5.367    58.4     9.1  19.1
2010 03 20    01 22.41   -56 27.8    5.848    5.398    58.7     9.1  19.2
2010 03 25    01 26.39   -55 44.1    5.871    5.429    59.2     9.1  19.2
2010 03 30    01 30.34   -55 03.8    5.893    5.459    59.8     9.1  19.2
2010 04 04    01 34.27   -54 26.7    5.911    5.490    60.6     9.1  19.3
2010 04 09    01 38.16   -53 53.0    5.927    5.521    61.6     9.2  19.3
2010 04 14    01 41.98   -53 22.7    5.940    5.552    62.7     9.2  19.3
2010 04 19    01 45.74   -52 55.9    5.951    5.583    63.9     9.3  19.3
2010 04 24    01 49.41   -52 32.5    5.959    5.614    65.3     9.4  19.4
2010 04 29    01 52.98   -52 12.5    5.965    5.646    66.9     9.4  19.4
2010 05 04    01 56.43   -51 55.9    5.968    5.677    68.5     9.5  19.4
2010 05 09    01 59.76   -51 42.8    5.969    5.708    70.3     9.6  19.4
2010 05 14    02 02.95   -51 33.1    5.967    5.739    72.2     9.7  19.5
2010 05 19    02 05.98   -51 26.8    5.964    5.771    74.2     9.7  19.5
2010 05 24    02 08.82   -51 23.9    5.959    5.802    76.2     9.8  19.5
2010 05 29    02 11.48   -51 24.3    5.953    5.834    78.4     9.8  19.5
2010 06 03    02 13.92   -51 28.0    5.945    5.865    80.6     9.8  19.6
2010 06 08    02 16.14   -51 34.9    5.935    5.897    82.9     9.8  19.6
2010 06 13    02 18.10   -51 44.9    5.925    5.929    85.3     9.8  19.6
2010 06 18    02 19.78   -51 57.9    5.915    5.960    87.6     9.8  19.6
2010 06 23    02 21.16   -52 13.8    5.904    5.992    90.1     9.8  19.6
2010 06 28    02 22.22   -52 32.3    5.893    6.024    92.5     9.7  19.7
2010 07 03    02 22.94   -52 53.4    5.883    6.056    94.9     9.6  19.7
2010 07 08    02 23.27   -53 16.7    5.873    6.087    97.4     9.5  19.7
2010 07 13    02 23.21   -53 42.1    5.864    6.119    99.8     9.4  19.7

Back to Observable Comets


Valid HTML 4.01!